User: anonymous   Login
Location: Anjeux
(47.8815°N, 6.2076°E)
Time: 16:41:35
(UTC+00:00)
Language:

Cosmos 2184 Rocket - Orbit

View from above orbital plane
View from above orbital plane
View from above satellite
View from above satellite

Ground track
Ground track

The orbit data is extracted from the following two-line orbital elements,

1 21938U 92020B   21135.80028288  .00000005  00000-0 -11289-4 0  9995
2 21938  82.9325  19.8274 0029489 163.8290 264.3634 13.75286386459359
Epoch (UTC): 15 May 2021 19:12:24
Eccentricity: 0.0029489
inclination: 82.9325°
perigee height: 959 km
apogee height: 1002 km
right ascension of ascending node: 19.8274°
argument of perigee: 163.8290°
revolutions per day: 13.75286386
mean anomaly at epoch: 264.3634°
orbit number at epoch: 45935

The dashed part of the orbit path shows where the satellite is in the earth's shadow,  

DLR